Regional Weather Roundup
Issued by NWS Midland/Odessa, TX

Skip options and go directly to product.
Home | Oldest Version | Previous Version | Current Version | All | Text Only | Save Text | Print | Product List | Glossary Off

Skip product version selection by date and time.   

368
ASUS44 KMAF 260010
RWRMAF
MIDLAND AREA WEATHER ROUNDUP
NATIONAL WEATHER SERVICE MIDLAND TX
700 PM CDT SAT OCT 25 2014

...IN SOUTHWEST TEXAS AND SOUTHEAST NEW MEXICO...

CITY           SKY/WX    TMP DP  RH WIND       PRES   REMARKS
ALPINE         CLEAR     76  45  33 S6        30.24S
ANDREWS        FAIR      79  48  33 SW5       30.11S
ARTESIA        NOT AVBL
BIG SPRING     CLEAR     79  50  36 SE5       30.10F
CARLSBAD       CLEAR     78  57  48 SE7       30.06F
DRYDEN           N/A     82  51  34 E10       30.08R
FORT STOCKTON  CLEAR     82  47  29 S5        30.09S
GUAD PASS      CLEAR     73  41  31 W14       30.24S
HOBBS          CLEAR     77  50  38 S7        30.13S
MARFA          CLEAR     75  46  35 S6        30.24R
MIDLAND AIRPK  CLEAR     84  49  29 SE7       30.09S
MIDLAND INTL   CLEAR     84  47  27 S10       30.08F
ODESSA         CLEAR     82  48  30 S8        30.10S
PECOS          CLEAR     81  53  37 E7        30.06S
PRESIDIO       FAIR      85  44  23 NW3       30.08F
SEMINOLE       CLEAR     76  51  41 S6        30.12S
SNYDER         CLEAR     78  54  42 SE7       30.09S
WINK           CLEAR     82  48  30 SE7       30.06F
$$
...OTHER STATIONS IN TEXAS...

CITY           SKY/WX    TMP DP  RH WIND       PRES   REMARKS
ABILENE        CLEAR     82  49  31 S7        30.08S
AMARILLO       CLEAR     77  49  37 S13       30.08F
AUSTIN         CLEAR     81  58  45 SE6       30.07S
BROWNSVILLE    CLEAR     76  66  71 E7        30.09R
CORPUS CHRISTI CLEAR     76  64  66 E9        30.09R
DALLAS FTW     CLEAR     80  59  48 S7        30.04S
DEL RIO        CLEAR     82  59  45 SE7       30.05S
EL PASO        CLEAR     83  42  23 NW9       30.12F
HOUSTON INT    CLEAR     71  59  65 SE5       30.09S
LUBBOCK        CLEAR     78  50  37 S8        30.09F
SAN ANGELO     CLEAR     82  48  30 S7        30.08S
SAN ANTONIO    CLEAR     83  55  38 SE10      30.08S
WACO           CLEAR     77  62  59 S6        30.06S
WICHITA FALLS  NOT AVBL
$$
...OTHER LOCATIONS IN NEW MEXICO...

CITY           SKY/WX    TMP DP  RH WIND       PRES   REMARKS
ALAMAGORDO     NOT AVBL
ALBUQUERQUE    CLEAR     76  33  21 S8        30.17F
CANNON AFB     CLEAR     76  40  27 SW9       30.12S
CLOVIS         CLEAR     75  41  29 SW9       30.13F
HOLLOMAN AFB   PTCLDY    80  43  26 SE7       30.12F
ROSWELL        CLEAR     77  52  41 SE8       30.08F
RUIDOSO        CLEAR     66  36  32 SW8       30.31S
SANTA FE       CLEAR     71  27  19 SW12      30.22S
TRUTH OR CONSE CLEAR     80  41  24 S8        30.14F
TUCUMCARI      CLEAR     80  40  23 S9        30.05F
$$

USA.gov is the U.S. government's official web portal to all federal, state and local government web resources and services.